Zurück zum Katalog

STARLINK-30370

AktivKommunikationVLEO
NORAD 57751·PAYLOAD·🇺🇸 United States

Gestartet Sep 1, 2023 von Cape Canaveral Space Force Station

Loading…

Nächste Überflüge (nächste 24 Stunden)

TLE

AktuellSource: CelesTrak SupGP

Epoche: Sep 15, 2026, 02:18 UTC

1 57751C 23131V   26258.09631944 -.00632030  00000+0 -19517-1 0  2581
2 57751  42.9996 161.5923 0001118 257.0892  41.4108 15.33037811    18

Verfolge STARLINK-30370 in Echtzeit mit AllMySat

Download on the App Store